TimeCDT,TemperatureF,Dew PointF,Humidity,Sea Level PressureIn,VisibilityMPH,Wind Direction,Wind SpeedMPH,Gust SpeedMPH,PrecipitationIn,Events,Conditions,WindDirDegrees,DateUTC
12:15 AM,48.2,32.0,54,30.14,10.0,NNE,9.2,-,N/A,,Scattered Clouds,30,2013-04-03 05:15:00
12:35 AM,46.4,32.0,57,30.13,10.0,NNE,9.2,-,N/A,,Scattered Clouds,30,2013-04-03 05:35:00
12:55 AM,46.4,32.0,57,30.13,10.0,North,4.6,-,N/A,,Scattered Clouds,10,2013-04-03 05:55:00
1:15 AM,46.4,32.0,57,30.12,10.0,NNE,4.6,-,N/A,,Scattered Clouds,20,2013-04-03 06:15:00
1:35 AM,46.4,32.0,57,30.10,10.0,NNE,8.1,-,N/A,,Mostly Cloudy,30,2013-04-03 06:35:00
1:55 AM,46.4,32.0,57,30.10,10.0,NNE,8.1,-,N/A,,Mostly Cloudy,20,2013-04-03 06:55:00
2:15 AM,46.4,32.0,57,30.10,10.0,NNE,6.9,-,N/A,,Mostly Cloudy,20,2013-04-03 07:15:00
2:35 AM,46.4,32.0,57,30.11,10.0,NNE,8.1,-,N/A,,Overcast,30,2013-04-03 07:35:00
2:55 AM,46.4,32.0,57,30.11,10.0,NNE,8.1,-,N/A,,Overcast,30,2013-04-03 07:55:00
3:15 AM,46.4,32.0,57,30.10,10.0,NE,9.2,-,N/A,,Overcast,40,2013-04-03 08:15:00
3:35 AM,46.4,32.0,57,30.10,10.0,NNE,9.2,-,N/A,,Overcast,20,2013-04-03 08:35:00
3:55 AM,46.4,32.0,57,30.11,10.0,NNE,8.1,-,N/A,,Overcast,30,2013-04-03 08:55:00
4:15 AM,46.4,32.0,57,30.11,10.0,NE,10.4,-,N/A,,Mostly Cloudy,40,2013-04-03 09:15:00
4:35 AM,46.4,32.0,57,30.12,10.0,NNE,5.8,-,N/A,,Mostly Cloudy,20,2013-04-03 09:35:00
4:55 AM,46.4,32.0,57,30.11,10.0,NNE,9.2,-,N/A,,Mostly Cloudy,30,2013-04-03 09:55:00
5:15 AM,46.4,32.0,57,30.12,10.0,NE,9.2,-,N/A,,Scattered Clouds,40,2013-04-03 10:15:00
5:35 AM,46.4,32.0,57,30.12,10.0,NNE,9.2,-,N/A,,Scattered Clouds,20,2013-04-03 10:35:00
5:55 AM,46.4,32.0,57,30.11,10.0,NNE,9.2,-,N/A,,Scattered Clouds,20,2013-04-03 10:55:00
6:15 AM,46.4,32.0,57,30.10,10.0,NNE,11.5,-,N/A,,Scattered Clouds,30,2013-04-03 11:15:00
6:35 AM,46.4,32.0,57,30.11,10.0,NNE,10.4,-,N/A,,Clear,20,2013-04-03 11:35:00
6:55 AM,46.4,32.0,57,30.13,10.0,NNE,8.1,-,N/A,,Mostly Cloudy,30,2013-04-03 11:55:00
7:15 AM,46.4,32.0,57,30.14,10.0,NE,6.9,-,N/A,,Overcast,40,2013-04-03 12:15:00
7:35 AM,46.4,32.0,57,30.14,10.0,NE,9.2,-,N/A,,Overcast,40,2013-04-03 12:35:00
7:55 AM,46.4,32.0,57,30.15,10.0,NNE,8.1,-,N/A,,Overcast,30,2013-04-03 12:55:00
8:15 AM,46.4,32.0,57,30.15,10.0,NNE,6.9,-,N/A,,Overcast,30,2013-04-03 13:15:00
8:35 AM,46.4,32.0,57,30.15,10.0,NNE,10.4,-,N/A,,Overcast,30,2013-04-03 13:35:00
8:55 AM,44.6,35.6,71,30.15,10.0,NE,10.4,16.1,N/A,Rain,Rain,40,2013-04-03 13:55:00
9:15 AM,44.6,35.6,71,30.14,10.0,NNE,5.8,-,0.01,Rain,Light Rain,20,2013-04-03 14:15:00
9:35 AM,44.6,35.6,71,30.15,10.0,NNE,8.1,-,0.01,,Light Drizzle,30,2013-04-03 14:35:00
9:55 AM,44.6,35.6,71,30.14,10.0,NNE,10.4,-,0.01,,Overcast,30,2013-04-03 14:55:00
10:15 AM,44.6,35.6,71,30.14,10.0,NE,6.9,-,N/A,,Overcast,40,2013-04-03 15:15:00
10:35 AM,44.6,35.6,71,30.15,10.0,NNE,8.1,-,N/A,,Light Drizzle,30,2013-04-03 15:35:00
10:55 AM,44.6,35.6,71,30.15,10.0,NE,8.1,-,N/A,,Drizzle,50,2013-04-03 15:55:00
11:15 AM,44.6,35.6,71,30.15,10.0,NE,5.8,-,N/A,,Drizzle,50,2013-04-03 16:15:00
11:35 AM,44.6,37.4,76,30.15,10.0,NE,9.2,-,N/A,,Light Drizzle,50,2013-04-03 16:35:00
11:55 AM,46.4,35.6,66,30.15,10.0,NE,10.4,-,N/A,,Light Drizzle,50,2013-04-03 16:55:00
12:15 PM,46.4,35.6,66,30.14,10.0,NE,13.8,-,N/A,,Light Drizzle,50,2013-04-03 17:15:00
12:35 PM,46.4,37.4,71,30.13,10.0,NE,10.4,-,N/A,,Overcast,40,2013-04-03 17:35:00
12:55 PM,46.4,37.4,71,30.13,10.0,NE,9.2,-,N/A,,Light Drizzle,40,2013-04-03 17:55:00
1:15 PM,46.4,37.4,71,30.13,10.0,NE,9.2,-,N/A,,Drizzle,40,2013-04-03 18:15:00
1:35 PM,46.4,37.4,71,30.13,10.0,NNE,11.5,-,0.01,,Drizzle,30,2013-04-03 18:35:00
1:55 PM,44.6,39.2,81,30.14,10.0,NNE,8.1,-,0.01,,Drizzle,20,2013-04-03 18:55:00
2:15 PM,44.6,41.0,87,30.15,7.0,NNE,4.6,-,0.01,Rain,Rain,20,2013-04-03 19:15:00
2:55 PM,44.6,42.8,93,30.12,7.0,NNE,10.4,16.1,0.07,Rain,Rain,20,2013-04-03 19:55:00
3:15 PM,44.6,42.8,93,30.11,7.0,NNE,10.4,-,0.03,Rain,Rain,20,2013-04-03 20:15:00
3:35 PM,42.8,41.0,93,30.11,7.0,NNE,13.8,20.7,0.06,Rain,Rain,20,2013-04-03 20:35:00
3:55 PM,42.8,41.0,93,30.11,7.0,North,10.4,18.4,0.08,Rain,Rain,10,2013-04-03 20:55:00
4:15 PM,42.8,41.0,93,30.12,7.0,NNE,10.4,-,0.03,Rain,Rain,20,2013-04-03 21:15:00
4:35 PM,42.8,41.0,93,30.11,5.0,NNE,9.2,-,0.07,Rain,Rain,30,2013-04-03 21:35:00
4:55 PM,42.8,42.8,100,30.11,5.0,NNE,8.1,-,0.10,Rain,Rain,20,2013-04-03 21:55:00
5:15 PM,42.8,42.8,100,30.10,7.0,North,10.4,16.1,0.01,Rain,Light Rain,10,2013-04-03 22:15:00
5:35 PM,44.6,42.8,93,30.10,7.0,NNE,11.5,-,0.03,Rain,Light Rain,20,2013-04-03 22:35:00
5:55 PM,44.6,42.8,93,30.09,7.0,NE,12.7,-,0.04,Rain,Rain,40,2013-04-03 22:55:00
6:15 PM,44.6,42.8,93,30.09,10.0,NNE,11.5,-,N/A,,Drizzle,30,2013-04-03 23:15:00
6:35 PM,44.6,42.8,93,30.08,10.0,NE,13.8,-,N/A,Rain,Rain,50,2013-04-03 23:35:00
6:55 PM,44.6,42.8,93,30.07,10.0,NE,12.7,-,N/A,,Light Drizzle,40,2013-04-03 23:55:00
7:15 PM,44.6,42.8,93,30.07,10.0,NE,12.7,-,N/A,,Overcast,50,2013-04-04 00:15:00
7:35 PM,44.6,42.8,93,30.07,10.0,NNE,10.4,-,0.01,,Overcast,30,2013-04-04 00:35:00
7:55 PM,44.6,42.8,93,30.07,10.0,NE,9.2,-,0.01,,Overcast,50,2013-04-04 00:55:00
8:15 PM,44.6,42.8,93,30.08,10.0,NE,4.6,-,N/A,,Overcast,50,2013-04-04 01:15:00
8:35 PM,44.6,42.8,93,30.08,10.0,NE,5.8,-,N/A,,Overcast,50,2013-04-04 01:35:00
8:55 PM,44.6,42.8,93,30.09,10.0,NE,5.8,-,N/A,,Heavy Drizzle,50,2013-04-04 01:55:00
9:15 PM,44.6,42.8,93,30.10,4.0,NNE,6.9,-,0.02,Rain,Rain,30,2013-04-04 02:15:00
9:35 PM,44.6,42.8,93,30.10,5.0,NNE,6.9,-,0.05,Rain,Rain,30,2013-04-04 02:35:00
9:55 PM,44.6,42.8,93,30.10,5.0,NE,6.9,-,0.06,,Heavy Drizzle,40,2013-04-04 02:55:00
10:15 PM,44.6,44.6,100,30.11,5.0,NE,5.8,-,0.01,,Heavy Drizzle,40,2013-04-04 03:15:00
10:35 PM,44.6,44.6,100,30.11,7.0,NNE,8.1,-,0.02,,Drizzle,30,2013-04-04 03:35:00
10:55 PM,44.6,44.6,100,30.10,5.0,NNE,6.9,-,0.03,,Drizzle,20,2013-04-04 03:55:00
11:15 PM,44.6,44.6,100,30.10,5.0,NNE,5.8,-,N/A,,Drizzle,20,2013-04-04 04:15:00
11:35 PM,44.6,44.6,100,30.09,4.0,North,3.5,-,0.01,,Heavy Drizzle,10,2013-04-04 04:35:00
11:55 PM,44.6,44.6,100,30.08,4.0,NNE,9.2,-,0.02,,Heavy Drizzle,30,2013-04-04 04:55:00